Year,Month,Day,Hour,Minute,Value (Times are PST for insolation in W/m^2)
2009,05,11,00,00,0.00
2009,05,11,00,01,0.00
2009,05,11,00,02,0.00
2009,05,11,00,03,0.00
2009,05,11,00,04,0.00
2009,05,11,00,05,0.00
2009,05,11,00,06,0.00
2009,05,11,00,07,0.00
2009,05,11,00,08,0.00
2009,05,11,00,09,0.00
2009,05,11,00,10,0.00
2009,05,11,00,11,0.00
2009,05,11,00,12,0.00
2009,05,11,00,13,0.00
2009,05,11,00,14,0.00
2009,05,11,00,15,0.00
2009,05,11,00,16,0.00
2009,05,11,00,17,0.00
2009,05,11,00,18,0.00
2009,05,11,00,19,0.00
2009,05,11,00,20,0.00
2009,05,11,00,21,0.00
2009,05,11,00,22,0.00
2009,05,11,00,23,0.00
2009,05,11,00,24,0.00
2009,05,11,00,25,0.00
2009,05,11,00,26,0.00
2009,05,11,00,27,0.00
2009,05,11,00,28,0.00
2009,05,11,00,29,0.00
2009,05,11,00,30,0.00
2009,05,11,00,31,0.00
2009,05,11,00,32,0.00
2009,05,11,00,33,0.00
2009,05,11,00,34,0.00
2009,05,11,00,35,0.00
2009,05,11,00,36,0.00
2009,05,11,00,37,0.00
2009,05,11,00,38,0.00
2009,05,11,00,39,0.00
2009,05,11,00,40,0.00
2009,05,11,00,41,0.00
2009,05,11,00,42,0.00
2009,05,11,00,43,0.00
2009,05,11,00,44,0.00
2009,05,11,00,45,0.00
2009,05,11,00,46,0.00
2009,05,11,00,47,0.00
2009,05,11,00,48,0.00
2009,05,11,00,49,0.00
2009,05,11,00,50,0.00
2009,05,11,00,51,0.00
2009,05,11,00,52,0.00
2009,05,11,00,53,0.00
2009,05,11,00,54,0.00
2009,05,11,00,55,0.00
2009,05,11,00,56,0.00
2009,05,11,00,57,0.00
2009,05,11,00,58,0.00
2009,05,11,00,59,0.00
2009,05,11,01,00,0.00
2009,05,11,01,01,0.00
2009,05,11,01,02,0.00
2009,05,11,01,03,0.00
2009,05,11,01,04,0.00
2009,05,11,01,05,0.00
2009,05,11,01,06,0.00
2009,05,11,01,07,0.00
2009,05,11,01,08,0.00
2009,05,11,01,09,0.00
2009,05,11,01,10,0.00
2009,05,11,01,11,0.00
2009,05,11,01,12,0.00
2009,05,11,01,13,0.00
2009,05,11,01,14,0.00
2009,05,11,01,15,0.00
2009,05,11,01,16,0.00
2009,05,11,01,17,0.00
2009,05,11,01,18,0.00
2009,05,11,01,19,0.00
2009,05,11,01,20,0.00
2009,05,11,01,21,0.00
2009,05,11,01,22,0.00
2009,05,11,01,23,0.00
2009,05,11,01,24,0.00
2009,05,11,01,25,0.00
2009,05,11,01,26,0.00
2009,05,11,01,27,0.00
2009,05,11,01,28,0.00
2009,05,11,01,29,0.00
2009,05,11,01,30,0.00
2009,05,11,01,31,0.00
2009,05,11,01,32,0.00
2009,05,11,01,33,0.00
2009,05,11,01,34,0.00
2009,05,11,01,35,0.00
2009,05,11,01,36,0.00
2009,05,11,01,37,0.00
2009,05,11,01,38,0.00
2009,05,11,01,39,0.00
2009,05,11,01,40,0.00
2009,05,11,01,41,0.00
2009,05,11,01,42,0.00
2009,05,11,01,43,0.00
2009,05,11,01,44,0.00
2009,05,11,01,45,0.00
2009,05,11,01,46,0.00
2009,05,11,01,47,0.00
2009,05,11,01,48,0.00
2009,05,11,01,49,0.00
2009,05,11,01,50,0.00
2009,05,11,01,51,0.00
2009,05,11,01,52,0.00
2009,05,11,01,53,0.00
2009,05,11,01,54,0.00
2009,05,11,01,55,0.00
2009,05,11,01,56,0.00
2009,05,11,01,57,0.00
2009,05,11,01,58,0.00
2009,05,11,01,59,0.00
2009,05,11,02,00,0.00
2009,05,11,02,01,0.00
2009,05,11,02,02,0.00
2009,05,11,02,03,0.00
2009,05,11,02,04,0.00
2009,05,11,02,05,0.00
2009,05,11,02,06,0.00
2009,05,11,02,07,0.00
2009,05,11,02,08,0.00
2009,05,11,02,09,0.00
2009,05,11,02,10,0.00
2009,05,11,02,11,0.00
2009,05,11,02,12,0.00
2009,05,11,02,13,0.00
2009,05,11,02,14,0.00
2009,05,11,02,15,0.00
2009,05,11,02,16,0.00
2009,05,11,02,17,0.00
2009,05,11,02,18,0.00
2009,05,11,02,19,0.00
2009,05,11,02,20,0.00
2009,05,11,02,21,0.00
2009,05,11,02,22,0.00
2009,05,11,02,23,0.00
2009,05,11,02,24,0.00
2009,05,11,02,25,0.00
2009,05,11,02,26,0.00
2009,05,11,02,27,0.00
2009,05,11,02,28,0.00
2009,05,11,02,29,0.00
2009,05,11,02,30,0.00
2009,05,11,02,31,0.00
2009,05,11,02,32,0.00
2009,05,11,02,33,0.00
2009,05,11,02,34,0.00
2009,05,11,02,35,0.00
2009,05,11,02,36,0.00
2009,05,11,02,37,0.00
2009,05,11,02,38,0.00
2009,05,11,02,39,0.00
2009,05,11,02,40,0.00
2009,05,11,02,41,0.00
2009,05,11,02,42,0.00
2009,05,11,02,43,0.00
2009,05,11,02,44,0.00
2009,05,11,02,45,0.00
2009,05,11,02,46,0.00
2009,05,11,02,47,0.00
2009,05,11,02,48,0.00
2009,05,11,02,49,0.00
2009,05,11,02,50,0.00
2009,05,11,02,51,0.00
2009,05,11,02,52,0.00
2009,05,11,02,53,0.00
2009,05,11,02,54,0.00
2009,05,11,02,55,0.00
2009,05,11,02,56,0.00
2009,05,11,02,57,0.00
2009,05,11,02,58,0.00
2009,05,11,02,59,0.00
2009,05,11,03,00,0.00
2009,05,11,03,01,0.00
2009,05,11,03,02,0.00
2009,05,11,03,03,0.00
2009,05,11,03,04,0.00
2009,05,11,03,05,0.00
2009,05,11,03,06,0.00
2009,05,11,03,07,0.00
2009,05,11,03,08,0.00
2009,05,11,03,09,0.00
2009,05,11,03,10,0.00
2009,05,11,03,11,0.00
2009,05,11,03,12,0.00
2009,05,11,03,13,0.00
2009,05,11,03,14,0.00
2009,05,11,03,15,0.00
2009,05,11,03,16,0.00
2009,05,11,03,17,0.00
2009,05,11,03,18,0.00
2009,05,11,03,19,0.00
2009,05,11,03,20,0.00
2009,05,11,03,21,0.00
2009,05,11,03,22,0.00
2009,05,11,03,23,0.00
2009,05,11,03,24,0.00
2009,05,11,03,25,0.00
2009,05,11,03,26,0.00
2009,05,11,03,27,0.00
2009,05,11,03,28,0.00
2009,05,11,03,29,0.00
2009,05,11,03,30,0.00
2009,05,11,03,31,0.00
2009,05,11,03,32,0.00
2009,05,11,03,33,0.00
2009,05,11,03,34,0.00
2009,05,11,03,35,0.00
2009,05,11,03,36,0.00
2009,05,11,03,37,0.00
2009,05,11,03,38,0.00
2009,05,11,03,39,0.00
2009,05,11,03,40,0.00
2009,05,11,03,41,0.00
2009,05,11,03,42,0.00
2009,05,11,03,43,0.00
2009,05,11,03,44,0.00
2009,05,11,03,45,0.00
2009,05,11,03,46,0.00
2009,05,11,03,47,0.00
2009,05,11,03,48,0.00
2009,05,11,03,49,0.00
2009,05,11,03,50,0.00
2009,05,11,03,51,0.00
2009,05,11,03,52,0.00
2009,05,11,03,53,0.00
2009,05,11,03,54,0.00
2009,05,11,03,55,0.00
2009,05,11,03,56,0.00
2009,05,11,03,57,0.00
2009,05,11,03,58,0.00
2009,05,11,03,59,0.00
2009,05,11,04,00,0.00
2009,05,11,04,01,0.00
2009,05,11,04,02,0.00
2009,05,11,04,03,0.00
2009,05,11,04,04,0.00
2009,05,11,04,05,0.00
2009,05,11,04,06,0.00
2009,05,11,04,07,0.00
2009,05,11,04,08,0.00
2009,05,11,04,09,0.00
2009,05,11,04,10,0.00
2009,05,11,04,11,0.00
2009,05,11,04,12,0.00
2009,05,11,04,13,0.00
2009,05,11,04,14,0.00
2009,05,11,04,15,0.00
2009,05,11,04,16,0.00
2009,05,11,04,17,0.00
2009,05,11,04,18,0.00
2009,05,11,04,19,0.00
2009,05,11,04,20,0.00
2009,05,11,04,21,0.00
2009,05,11,04,22,0.00
2009,05,11,04,23,0.00
2009,05,11,04,24,0.00
2009,05,11,04,25,0.00
2009,05,11,04,26,0.00
2009,05,11,04,27,0.00
2009,05,11,04,28,0.00
2009,05,11,04,29,0.00
2009,05,11,04,30,0.00
2009,05,11,04,31,0.00
2009,05,11,04,32,0.00
2009,05,11,04,33,0.00
2009,05,11,04,34,0.00
2009,05,11,04,35,0.00
2009,05,11,04,36,0.00
2009,05,11,04,37,0.00
2009,05,11,04,38,0.00
2009,05,11,04,39,0.00
2009,05,11,04,40,0.00
2009,05,11,04,41,0.00
2009,05,11,04,42,0.00
2009,05,11,04,43,0.00
2009,05,11,04,44,0.00
2009,05,11,04,45,0.00
2009,05,11,04,46,0.00
2009,05,11,04,47,0.00
2009,05,11,04,48,0.00
2009,05,11,04,49,0.00
2009,05,11,04,50,0.00
2009,05,11,04,51,0.00
2009,05,11,04,52,0.00
2009,05,11,04,53,0.00
2009,05,11,04,54,0.00
2009,05,11,04,55,0.00
2009,05,11,04,56,0.00
2009,05,11,04,57,0.00
2009,05,11,04,58,0.00
2009,05,11,04,59,0.00
2009,05,11,05,00,0.00
2009,05,11,05,01,0.00
2009,05,11,05,02,0.00
2009,05,11,05,03,0.00
2009,05,11,05,04,0.00
2009,05,11,05,05,0.00
2009,05,11,05,06,0.00
2009,05,11,05,07,0.00
2009,05,11,05,08,0.00
2009,05,11,05,09,0.00
2009,05,11,05,10,0.00
2009,05,11,05,11,0.00
2009,05,11,05,12,0.00
2009,05,11,05,13,0.00
2009,05,11,05,14,0.00
2009,05,11,05,15,0.00
2009,05,11,05,16,0.00
2009,05,11,05,17,0.00
2009,05,11,05,18,0.00
2009,05,11,05,19,0.00
2009,05,11,05,20,0.00
2009,05,11,05,21,0.00
2009,05,11,05,22,0.00
2009,05,11,05,23,0.00
2009,05,11,05,24,0.00
2009,05,11,05,25,0.00
2009,05,11,05,26,0.00
2009,05,11,05,27,0.00
2009,05,11,05,28,0.00
2009,05,11,05,29,0.00
2009,05,11,05,30,0.00
2009,05,11,05,31,0.00
2009,05,11,05,32,0.00
2009,05,11,05,33,0.00
2009,05,11,05,34,0.00
2009,05,11,05,35,0.00
2009,05,11,05,36,0.00
2009,05,11,05,37,0.00
2009,05,11,05,38,0.00
2009,05,11,05,39,0.00
2009,05,11,05,40,0.00
2009,05,11,05,41,0.00
2009,05,11,05,42,0.00
2009,05,11,05,43,0.00
2009,05,11,05,44,0.00
2009,05,11,05,45,0.00
2009,05,11,05,46,0.00
2009,05,11,05,47,0.00
2009,05,11,05,48,0.00
2009,05,11,05,49,0.00
2009,05,11,05,50,0.00
2009,05,11,05,51,0.00
2009,05,11,05,52,0.00
2009,05,11,05,53,0.00
2009,05,11,05,54,0.00
2009,05,11,05,55,1.10
2009,05,11,05,56,5.00
2009,05,11,05,57,5.00
2009,05,11,05,58,5.00
2009,05,11,05,59,5.00
2009,05,11,06,00,5.00
2009,05,11,06,01,5.00
2009,05,11,06,02,5.00
2009,05,11,06,03,5.00
2009,05,11,06,04,6.30
2009,05,11,06,05,7.00
2009,05,11,06,06,7.00
2009,05,11,06,07,7.00
2009,05,11,06,08,7.00
2009,05,11,06,09,7.00
2009,05,11,06,10,7.00
2009,05,11,06,11,7.00
2009,05,11,06,12,8.90
2009,05,11,06,13,9.00
2009,05,11,06,14,9.00
2009,05,11,06,15,9.00
2009,05,11,06,16,9.00
2009,05,11,06,17,10.60
2009,05,11,06,18,11.00
2009,05,11,06,19,11.00
2009,05,11,06,20,11.00
2009,05,11,06,21,11.00
2009,05,11,06,22,11.00
2009,05,11,06,23,11.00
2009,05,11,06,24,11.00
2009,05,11,06,25,11.00
2009,05,11,06,26,11.00
2009,05,11,06,27,11.00
2009,05,11,06,28,11.70
2009,05,11,06,29,12.10
2009,05,11,06,30,14.00
2009,05,11,06,31,14.60
2009,05,11,06,32,16.90
2009,05,11,06,33,18.60
2009,05,11,06,34,19.00
2009,05,11,06,35,20.80
2009,05,11,06,36,21.30
2009,05,11,06,37,23.00
2009,05,11,06,38,23.00
2009,05,11,06,39,23.00
2009,05,11,06,40,23.00
2009,05,11,06,41,22.90
2009,05,11,06,42,21.00
2009,05,11,06,43,20.30
2009,05,11,06,44,18.50
2009,05,11,06,45,18.00
2009,05,11,06,46,18.00
2009,05,11,06,47,18.90
2009,05,11,06,48,19.00
2009,05,11,06,49,18.60
2009,05,11,06,50,18.00
2009,05,11,06,51,18.00
2009,05,11,06,52,18.00
2009,05,11,06,53,18.10
2009,05,11,06,54,19.50
2009,05,11,06,55,21.80
2009,05,11,06,56,24.10
2009,05,11,06,57,25.70
2009,05,11,06,58,26.00
2009,05,11,06,59,26.20
2009,05,11,07,00,28.00
2009,05,11,07,01,28.80
2009,05,11,07,02,30.00
2009,05,11,07,03,30.00
2009,05,11,07,04,28.30
2009,05,11,07,05,28.00
2009,05,11,07,06,28.00
2009,05,11,07,07,28.00
2009,05,11,07,08,28.00
2009,05,11,07,09,26.50
2009,05,11,07,10,26.00
2009,05,11,07,11,25.80
2009,05,11,07,12,25.00
2009,05,11,07,13,24.10
2009,05,11,07,14,23.00
2009,05,11,07,15,21.50
2009,05,11,07,16,19.20
2009,05,11,07,17,18.00
2009,05,11,07,18,17.30
2009,05,11,07,19,16.00
2009,05,11,07,20,16.00
2009,05,11,07,21,16.00
2009,05,11,07,22,16.00
2009,05,11,07,23,16.00
2009,05,11,07,24,16.00
2009,05,11,07,25,16.00
2009,05,11,07,26,16.00
2009,05,11,07,27,16.00
2009,05,11,07,28,16.10
2009,05,11,07,29,18.00
2009,05,11,07,30,17.30
2009,05,11,07,31,16.00
2009,05,11,07,32,16.00
2009,05,11,07,33,16.00
2009,05,11,07,34,16.50
2009,05,11,07,35,21.00
2009,05,11,07,36,21.00
2009,05,11,07,37,21.00
2009,05,11,07,38,19.60
2009,05,11,07,39,18.10
2009,05,11,07,40,18.00
2009,05,11,07,41,18.00
2009,05,11,07,42,20.00
2009,05,11,07,43,21.90
2009,05,11,07,44,19.60
2009,05,11,07,45,19.00
2009,05,11,07,46,18.00
2009,05,11,07,47,17.40
2009,05,11,07,48,16.00
2009,05,11,07,49,16.00
2009,05,11,07,50,16.00
2009,05,11,07,51,20.20
2009,05,11,07,52,21.00
2009,05,11,07,53,20.40
2009,05,11,07,54,19.00
2009,05,11,07,55,23.10
2009,05,11,07,56,30.90
2009,05,11,07,57,39.30
2009,05,11,07,58,48.20
2009,05,11,07,59,56.20
2009,05,11,08,00,63.40
2009,05,11,08,01,62.00
2009,05,11,08,02,60.00
2009,05,11,08,03,59.60
2009,05,11,08,04,55.60
2009,05,11,08,05,55.40
2009,05,11,08,06,58.00
2009,05,11,08,07,65.20
2009,05,11,08,08,67.50
2009,05,11,08,09,66.80
2009,05,11,08,10,64.40
2009,05,11,08,11,61.20
2009,05,11,08,12,61.10
2009,05,11,08,13,67.20
2009,05,11,08,14,71.70
2009,05,11,08,15,72.70
2009,05,11,08,16,79.00
2009,05,11,08,17,79.00
2009,05,11,08,18,79.00
2009,05,11,08,19,79.00
2009,05,11,08,20,79.00
2009,05,11,08,21,79.00
2009,05,11,08,22,81.10
2009,05,11,08,23,86.00
2009,05,11,08,24,88.20
2009,05,11,08,25,90.00
2009,05,11,08,26,90.00
2009,05,11,08,27,93.00
2009,05,11,08,28,94.20
2009,05,11,08,29,97.00
2009,05,11,08,30,97.60
2009,05,11,08,31,101.00
2009,05,11,08,32,102.00
2009,05,11,08,33,114.00
2009,05,11,08,34,114.60
2009,05,11,08,35,118.40
2009,05,11,08,36,122.20
2009,05,11,08,37,124.60
2009,05,11,08,38,125.20
2009,05,11,08,39,131.00
2009,05,11,08,40,135.00
2009,05,11,08,41,139.10
2009,05,11,08,42,147.20
2009,05,11,08,43,154.50
2009,05,11,08,44,159.80
2009,05,11,08,45,164.20
2009,05,11,08,46,169.00
2009,05,11,08,47,173.50
2009,05,11,08,48,178.00
2009,05,11,08,49,178.80
2009,05,11,08,50,179.00
2009,05,11,08,51,175.50
2009,05,11,08,52,165.00
2009,05,11,08,53,170.50
2009,05,11,08,54,182.20
2009,05,11,08,55,190.60
2009,05,11,08,56,192.90
2009,05,11,08,57,191.20
2009,05,11,08,58,186.00
2009,05,11,08,59,198.00
2009,05,11,09,00,209.00
2009,05,11,09,01,209.00
2009,05,11,09,02,274.00
2009,05,11,09,03,274.00
2009,05,11,09,04,274.00
2009,05,11,09,05,274.00
2009,05,11,09,06,281.70
2009,05,11,09,07,278.70
2009,05,11,09,08,288.00
2009,05,11,09,09,314.40
2009,05,11,09,10,400.40
2009,05,11,09,11,434.00
2009,05,11,09,12,434.00
2009,05,11,09,13,353.20
2009,05,11,09,14,389.80
2009,05,11,09,15,445.00
2009,05,11,09,16,505.80
2009,05,11,09,17,580.00
2009,05,11,09,18,580.00
2009,05,11,09,19,459.20
2009,05,11,09,20,445.00
2009,05,11,09,21,445.00
2009,05,11,09,22,504.20
2009,05,11,09,23,558.30
2009,05,11,09,24,566.20
2009,05,11,09,25,570.90
2009,05,11,09,26,535.20
2009,05,11,09,27,401.00
2009,05,11,09,28,401.00
2009,05,11,09,29,401.00
2009,05,11,09,30,401.00
2009,05,11,09,31,568.70
2009,05,11,09,32,562.30
2009,05,11,09,33,512.00
2009,05,11,09,34,512.00
2009,05,11,09,35,600.90
2009,05,11,09,36,653.20
2009,05,11,09,37,674.00
2009,05,11,09,38,668.50
2009,05,11,09,39,643.80
2009,05,11,09,40,636.00
2009,05,11,09,41,636.00
2009,05,11,09,42,636.00
2009,05,11,09,43,636.00
2009,05,11,09,44,636.00
2009,05,11,09,45,636.00
2009,05,11,09,46,596.40
2009,05,11,09,47,564.00
2009,05,11,09,48,564.00
2009,05,11,09,49,470.90
2009,05,11,09,50,501.40
2009,05,11,09,51,584.00
2009,05,11,09,52,584.00
2009,05,11,09,53,584.00
2009,05,11,09,54,584.00
2009,05,11,09,55,630.20
2009,05,11,09,56,677.60
2009,05,11,09,57,679.00
2009,05,11,09,58,714.40
2009,05,11,09,59,785.20
2009,05,11,10,00,778.20
2009,05,11,10,01,327.00
2009,05,11,10,02,327.00
2009,05,11,10,03,327.00
2009,05,11,10,04,339.40
2009,05,11,10,05,346.00
2009,05,11,10,06,414.40
2009,05,11,10,07,422.00
2009,05,11,10,08,422.00
2009,05,11,10,09,422.00
2009,05,11,10,10,422.00
2009,05,11,10,11,422.00
2009,05,11,10,12,738.40
2009,05,11,10,13,756.00
2009,05,11,10,14,756.00
2009,05,11,10,15,756.00
2009,05,11,10,16,712.50
2009,05,11,10,17,657.40
2009,05,11,10,18,649.00
2009,05,11,10,19,673.00
2009,05,11,10,20,763.80
2009,05,11,10,21,747.10
2009,05,11,10,22,759.60
2009,05,11,10,23,773.40
2009,05,11,10,24,767.60
2009,05,11,10,25,726.00
2009,05,11,10,26,743.00
2009,05,11,10,27,738.00
2009,05,11,10,28,737.30
2009,05,11,10,29,747.10
2009,05,11,10,30,760.20
2009,05,11,10,31,773.00
2009,05,11,10,32,773.00
2009,05,11,10,33,764.80
2009,05,11,10,34,752.80
2009,05,11,10,35,755.50
2009,05,11,10,36,747.00
2009,05,11,10,37,756.10
2009,05,11,10,38,752.90
2009,05,11,10,39,765.40
2009,05,11,10,40,761.90
2009,05,11,10,41,749.90
2009,05,11,10,42,749.40
2009,05,11,10,43,751.40
2009,05,11,10,44,752.90
2009,05,11,10,45,752.80
2009,05,11,10,46,756.70
2009,05,11,10,47,760.70
2009,05,11,10,48,761.80
2009,05,11,10,49,765.40
2009,05,11,10,50,769.00
2009,05,11,10,51,775.20
2009,05,11,10,52,775.40
2009,05,11,10,53,785.10
2009,05,11,10,54,790.10
2009,05,11,10,55,804.70
2009,05,11,10,56,837.50
2009,05,11,10,57,892.40
2009,05,11,10,58,888.00
2009,05,11,10,59,882.00
2009,05,11,11,00,882.00
2009,05,11,11,01,882.00
2009,05,11,11,02,723.10
2009,05,11,11,03,556.90
2009,05,11,11,04,509.90
2009,05,11,11,05,506.60
2009,05,11,11,06,522.00
2009,05,11,11,07,522.00
2009,05,11,11,08,586.30
2009,05,11,11,09,633.00
2009,05,11,11,10,692.50
2009,05,11,11,11,678.50
2009,05,11,11,12,552.00
2009,05,11,11,13,578.00
2009,05,11,11,14,590.60
2009,05,11,11,15,599.00
2009,05,11,11,16,599.00
2009,05,11,11,17,579.20
2009,05,11,11,18,500.20
2009,05,11,11,19,487.50
2009,05,11,11,20,480.80
2009,05,11,11,21,495.00
2009,05,11,11,22,498.20
2009,05,11,11,23,479.50
2009,05,11,11,24,452.20
2009,05,11,11,25,430.80
2009,05,11,11,26,423.20
2009,05,11,11,27,420.50
2009,05,11,11,28,411.30
2009,05,11,11,29,396.10
2009,05,11,11,30,384.40
2009,05,11,11,31,379.00
2009,05,11,11,32,376.70
2009,05,11,11,33,374.40
2009,05,11,11,34,368.60
2009,05,11,11,35,357.50
2009,05,11,11,36,347.40
2009,05,11,11,37,340.50
2009,05,11,11,38,333.90
2009,05,11,11,39,332.00
2009,05,11,11,40,340.50
2009,05,11,11,41,356.50
2009,05,11,11,42,367.00
2009,05,11,11,43,374.70
2009,05,11,11,44,383.70
2009,05,11,11,45,385.00
2009,05,11,11,46,424.70
2009,05,11,11,47,434.50
2009,05,11,11,48,454.20
2009,05,11,11,49,480.70
2009,05,11,11,50,490.00
2009,05,11,11,51,490.00
2009,05,11,11,52,505.10
2009,05,11,11,53,517.00
2009,05,11,11,54,540.60
2009,05,11,11,55,573.00
2009,05,11,11,56,573.00
2009,05,11,11,57,573.00
2009,05,11,11,58,573.00
2009,05,11,11,59,573.00
2009,05,11,12,00,573.00
2009,05,11,12,01,449.80
2009,05,11,12,02,383.20
2009,05,11,12,03,359.90
2009,05,11,12,04,341.60
2009,05,11,12,05,334.60
2009,05,11,12,06,325.40
2009,05,11,12,07,315.00
2009,05,11,12,08,311.40
2009,05,11,12,09,319.60
2009,05,11,12,10,331.30
2009,05,11,12,11,336.00
2009,05,11,12,12,340.50
2009,05,11,12,13,351.30
2009,05,11,12,14,370.20
2009,05,11,12,15,366.50
2009,05,11,12,16,368.50
2009,05,11,12,17,374.00
2009,05,11,12,18,374.00
2009,05,11,12,19,374.00
2009,05,11,12,20,349.50
2009,05,11,12,21,307.20
2009,05,11,12,22,280.80
2009,05,11,12,23,274.00
2009,05,11,12,24,274.00
2009,05,11,12,25,270.50
2009,05,11,12,26,265.60
2009,05,11,12,27,309.50
2009,05,11,12,28,285.00
2009,05,11,12,29,263.80
2009,05,11,12,30,245.30
2009,05,11,12,31,244.20
2009,05,11,12,32,274.00
2009,05,11,12,33,270.10
2009,05,11,12,34,283.80
2009,05,11,12,35,299.60
2009,05,11,12,36,306.00
2009,05,11,12,37,289.90
2009,05,11,12,38,267.70
2009,05,11,12,39,267.10
2009,05,11,12,40,280.70
2009,05,11,12,41,293.00
2009,05,11,12,42,302.00
2009,05,11,12,43,310.60
2009,05,11,12,44,354.40
2009,05,11,12,45,359.00
2009,05,11,12,46,359.00
2009,05,11,12,47,359.00
2009,05,11,12,48,315.40
2009,05,11,12,49,314.80
2009,05,11,12,50,339.20
2009,05,11,12,51,376.00
2009,05,11,12,52,390.40
2009,05,11,12,53,417.00
2009,05,11,12,54,417.00
2009,05,11,12,55,336.20
2009,05,11,12,56,304.40
2009,05,11,12,57,385.00
2009,05,11,12,58,367.10
2009,05,11,12,59,313.00
2009,05,11,13,00,292.00
2009,05,11,13,01,292.00
2009,05,11,13,02,292.00
2009,05,11,13,03,292.00
2009,05,11,13,04,524.80
2009,05,11,13,05,874.00
2009,05,11,13,06,874.00
2009,05,11,13,07,887.60
2009,05,11,13,08,897.90
2009,05,11,13,09,939.70
2009,05,11,13,10,943.50
2009,05,11,13,11,964.20
2009,05,11,13,12,988.20
2009,05,11,13,13,990.00
2009,05,11,13,14,977.80
2009,05,11,13,15,1003.30
2009,05,11,13,16,1039.00
2009,05,11,13,17,1039.00
2009,05,11,13,18,1039.00
2009,05,11,13,19,1039.00
2009,05,11,13,20,1039.00
2009,05,11,13,21,1039.00
2009,05,11,13,22,1039.00
2009,05,11,13,23,1039.00
2009,05,11,13,24,1044.20
2009,05,11,13,25,989.60
2009,05,11,13,26,977.60
2009,05,11,13,27,956.00
2009,05,11,13,28,592.50
2009,05,11,13,29,289.60
2009,05,11,13,30,352.80
2009,05,11,13,31,396.00
2009,05,11,13,32,1051.40
2009,05,11,13,33,1093.00
2009,05,11,13,34,1093.00
2009,05,11,13,35,1073.40
2009,05,11,13,36,1028.40
2009,05,11,13,37,992.40
2009,05,11,13,38,998.50
2009,05,11,13,39,1030.00
2009,05,11,13,40,1030.00
2009,05,11,13,41,586.70
2009,05,11,13,42,348.00
2009,05,11,13,43,420.00
2009,05,11,13,44,388.20
2009,05,11,13,45,281.00
2009,05,11,13,46,281.00
2009,05,11,13,47,281.00
2009,05,11,13,48,281.00
2009,05,11,13,49,991.70
2009,05,11,13,50,983.20
2009,05,11,13,51,990.00
2009,05,11,13,52,990.00
2009,05,11,13,53,990.00
2009,05,11,13,54,990.00
2009,05,11,13,55,990.00
2009,05,11,13,56,991.30
2009,05,11,13,57,995.00
2009,05,11,13,58,995.00
2009,05,11,13,59,995.00
2009,05,11,14,00,1012.80
2009,05,11,14,01,1016.00
2009,05,11,14,02,1016.00
2009,05,11,14,03,1016.00
2009,05,11,14,04,1016.00
2009,05,11,14,05,1016.00
2009,05,11,14,06,1023.50
2009,05,11,14,07,1165.00
2009,05,11,14,08,1165.00
2009,05,11,14,09,797.00
2009,05,11,14,10,417.00
2009,05,11,14,11,403.20
2009,05,11,14,12,429.40
2009,05,11,14,13,431.00
2009,05,11,14,14,435.90
2009,05,11,14,15,460.00
2009,05,11,14,16,475.00
2009,05,11,14,17,475.00
2009,05,11,14,18,475.00
2009,05,11,14,19,475.00
2009,05,11,14,20,475.00
2009,05,11,14,21,475.00
2009,05,11,14,22,475.00
2009,05,11,14,23,1194.20
2009,05,11,14,24,1329.00
2009,05,11,14,25,1108.20
2009,05,11,14,26,442.30
2009,05,11,14,27,444.00
2009,05,11,14,28,452.00
2009,05,11,14,29,1069.30
2009,05,11,14,30,1185.00
2009,05,11,14,31,1185.00
2009,05,11,14,32,1185.00
2009,05,11,14,33,1185.00
2009,05,11,14,34,737.70
2009,05,11,14,35,578.00
2009,05,11,14,36,686.00
2009,05,11,14,37,686.00
2009,05,11,14,38,686.00
2009,05,11,14,39,686.00
2009,05,11,14,40,686.00
2009,05,11,14,41,1060.00
2009,05,11,14,42,1034.00
2009,05,11,14,43,1034.00
2009,05,11,14,44,1042.10
2009,05,11,14,45,1051.00
2009,05,11,14,46,1051.00
2009,05,11,14,47,1051.00
2009,05,11,14,48,1050.20
2009,05,11,14,49,1048.70
2009,05,11,14,50,1103.00
2009,05,11,14,51,1151.00
2009,05,11,14,52,1151.00
2009,05,11,14,53,405.20
2009,05,11,14,54,416.20
2009,05,11,14,55,370.80
2009,05,11,14,56,355.50
2009,05,11,14,57,373.70
2009,05,11,14,58,329.10
2009,05,11,14,59,321.40
2009,05,11,15,00,322.00
2009,05,11,15,01,337.50
2009,05,11,15,02,364.00
2009,05,11,15,03,364.00
2009,05,11,15,04,364.00
2009,05,11,15,05,364.00
2009,05,11,15,06,364.00
2009,05,11,15,07,364.00
2009,05,11,15,08,364.00
2009,05,11,15,09,578.90
2009,05,11,15,10,671.00
2009,05,11,15,11,671.00
2009,05,11,15,12,590.00
2009,05,11,15,13,415.70
2009,05,11,15,14,436.00
2009,05,11,15,15,436.00
2009,05,11,15,16,720.50
2009,05,11,15,17,707.00
2009,05,11,15,18,441.00
2009,05,11,15,19,473.40
2009,05,11,15,20,513.00
2009,05,11,15,21,693.80
2009,05,11,15,22,748.90
2009,05,11,15,23,652.00
2009,05,11,15,24,588.70
2009,05,11,15,25,441.90
2009,05,11,15,26,437.60
2009,05,11,15,27,421.50
2009,05,11,15,28,410.70
2009,05,11,15,29,390.50
2009,05,11,15,30,385.70
2009,05,11,15,31,389.40
2009,05,11,15,32,395.20
2009,05,11,15,33,397.00
2009,05,11,15,34,441.70
2009,05,11,15,35,475.00
2009,05,11,15,36,462.40
2009,05,11,15,37,442.20
2009,05,11,15,38,413.80
2009,05,11,15,39,398.60
2009,05,11,15,40,383.60
2009,05,11,15,41,383.30
2009,05,11,15,42,392.80
2009,05,11,15,43,389.30
2009,05,11,15,44,379.10
2009,05,11,15,45,367.60
2009,05,11,15,46,358.50
2009,05,11,15,47,349.00
2009,05,11,15,48,346.70
2009,05,11,15,49,361.80
2009,05,11,15,50,386.30
2009,05,11,15,51,374.10
2009,05,11,15,52,388.40
2009,05,11,15,53,364.80
2009,05,11,15,54,367.00
2009,05,11,15,55,369.20
2009,05,11,15,56,368.20
2009,05,11,15,57,372.40
2009,05,11,15,58,373.00
2009,05,11,15,59,396.10
2009,05,11,16,00,439.50
2009,05,11,16,01,410.60
2009,05,11,16,02,387.70
2009,05,11,16,03,374.50
2009,05,11,16,04,374.30
2009,05,11,16,05,396.90
2009,05,11,16,06,437.30
2009,05,11,16,07,403.20
2009,05,11,16,08,348.80
2009,05,11,16,09,407.00
2009,05,11,16,10,415.00
2009,05,11,16,11,415.00
2009,05,11,16,12,448.20
2009,05,11,16,13,485.00
2009,05,11,16,14,485.00
2009,05,11,16,15,225.80
2009,05,11,16,16,185.00
2009,05,11,16,17,187.90
2009,05,11,16,18,203.50
2009,05,11,16,19,231.10
2009,05,11,16,20,265.80
2009,05,11,16,21,320.20
2009,05,11,16,22,406.00
2009,05,11,16,23,465.20
2009,05,11,16,24,554.00
2009,05,11,16,25,554.00
2009,05,11,16,26,554.00
2009,05,11,16,27,633.80
2009,05,11,16,28,638.00
2009,05,11,16,29,539.50
2009,05,11,16,30,397.40
2009,05,11,16,31,379.70
2009,05,11,16,32,374.00
2009,05,11,16,33,410.30
2009,05,11,16,34,719.00
2009,05,11,16,35,775.80
2009,05,11,16,36,854.00
2009,05,11,16,37,425.80
2009,05,11,16,38,281.20
2009,05,11,16,39,293.50
2009,05,11,16,40,275.30
2009,05,11,16,41,272.10
2009,05,11,16,42,235.50
2009,05,11,16,43,230.50
2009,05,11,16,44,244.60
2009,05,11,16,45,278.90
2009,05,11,16,46,312.40
2009,05,11,16,47,304.00
2009,05,11,16,48,361.00
2009,05,11,16,49,379.80
2009,05,11,16,50,373.00
2009,05,11,16,51,373.00
2009,05,11,16,52,369.50
2009,05,11,16,53,358.00
2009,05,11,16,54,353.00
2009,05,11,16,55,353.00
2009,05,11,16,56,328.00
2009,05,11,16,57,311.00
2009,05,11,16,58,308.50
2009,05,11,16,59,304.00
2009,05,11,17,00,304.00
2009,05,11,17,01,632.80
2009,05,11,17,02,741.10
2009,05,11,17,03,729.20
2009,05,11,17,04,714.80
2009,05,11,17,05,690.50
2009,05,11,17,06,674.20
2009,05,11,17,07,664.30
2009,05,11,17,08,655.70
2009,05,11,17,09,645.60
2009,05,11,17,10,631.20
2009,05,11,17,11,615.60